| time (UTC) | temp C | wind direction | speed KPH | gust KPH | rain 1hr cm | rain 24hr cm | rain mn cm | humidity % | barometer mb |
| 20260502123111 | 13 | 228 | 3.2 | 14.5 | 0.00 | 0.56 | 0.56 | 89 | 1018.9 |
| 20260502121603 | 12 | 139 | 3.2 | 14.5 | 0.00 | 0.56 | 0.56 | 89 | 1019.0 |
| 20260502120114 | 12 | 245 | 6.4 | 12.9 | 0.00 | 0.56 | 0.56 | 89 | 1019.5 |
| 20260502114603 | 12 | 0 | 0.0 | 6.4 | 0.00 | 0.56 | 0.56 | 91 | 1019.5 |
| 20260502113100 | 12 | 0 | 0.0 | 4.8 | 0.00 | 0.56 | 0.56 | 91 | 1019.8 |
| 20260502111602 | 11 | 0 | 4.8 | 8.0 | 0.03 | 0.56 | 0.56 | 90 | 1019.8 |
| 20260502110100 | 12 | 11 | 1.6 | 6.4 | 0.08 | 0.56 | 0.56 | 90 | 1020.1 |
| 20260502104559 | 12 | 263 | 4.8 | 12.9 | 0.46 | 0.56 | 0.56 | 91 | 1020.4 |
| 20260502103113 | 12 | 267 | 1.6 | 9.7 | 0.46 | 0.56 | 0.56 | 91 | 1020.3 |
| 20260502101601 | 12 | 207 | 0.0 | 9.7 | 0.46 | 0.53 | 0.53 | 91 | 1020.2 |
| 20260502100125 | 12 | 161 | 6.4 | 11.3 | 0.41 | 0.48 | 0.48 | 90 | 1020.4 |
| 20260502090116 | 12 | 200 | 4.8 | 14.5 | 0.08 | 0.08 | 0.08 | 89 | 1020.4 |
| 20260502070101 | 12 | 114 | 3.2 | 12.9 | 0.00 | 0.00 | 0.00 | 84 | 1020.5 |
| 20260502064608 | 12 | 235 | 9.7 | 16.1 | 0.00 | 0.00 | 0.00 | 84 | 1020.4 |
| 20260502063058 | 12 | 194 | 9.7 | 20.9 | 0.00 | 0.00 | 0.00 | 84 | 1020.3 |
| 20260502061559 | 12 | 320 | 11.3 | 22.5 | 0.00 | 0.00 | 0.00 | 84 | 1020.4 |
| 20260502060101 | 12 | 134 | 9.7 | 20.9 | 0.00 | 0.00 | 0.00 | 84 | 1020.2 |
| 20260502054600 | 12 | 169 | 8.0 | 16.1 | 0.00 | 0.00 | 0.00 | 85 | 1020.2 |
| 20260502053058 | 12 | 243 | 3.2 | 12.9 | 0.00 | 0.00 | 0.00 | 85 | 1020.0 |
| 20260502051652 | 12 | 174 | 6.4 | 19.3 | 0.00 | 0.00 | 0.00 | 85 | 1020.0 |
| 20260502050100 | 12 | 141 | 12.9 | 20.9 | 0.00 | 0.00 | 0.00 | 84 | 1020.2 |
| 20260502044608 | 12 | 148 | 9.7 | 19.3 | 0.00 | 0.00 | 0.00 | 84 | 1020.2 |
| 20260502043109 | 12 | 173 | 11.3 | 20.9 | 0.00 | 0.00 | 0.00 | 84 | 1020.3 |
| 20260502041556 | 12 | 153 | 9.7 | 17.7 | 0.00 | 0.00 | 0.00 | 84 | 1020.4 |
| 20260502040059 | 12 | 237 | 8.0 | 14.5 | 0.00 | 0.00 | 0.00 | 84 | 1020.6 |
| 20260502034557 | 12 | 109 | 4.8 | 12.9 | 0.00 | 0.00 | 0.00 | 84 | 1020.6 |
| 20260502033059 | 11 | 134 | 1.6 | 3.2 | 0.00 | 0.00 | 0.00 | 84 | 1020.7 |
| 20260502031610 | 11 | 0 | 0.0 | 1.6 | 0.00 | 0.00 | 0.00 | 83 | 1020.7 |
| 20260502030057 | 11 | 115 | 0.0 | 1.6 | 0.00 | 0.00 | 0.00 | 83 | 1020.7 |
| 20260502024600 | 11 | 0 | 0.0 | 0.0 | 0.00 | 0.00 | 0.00 | 82 | 1020.7 |
| 20260502023058 | 11 | 0 | 0.0 | 1.6 | 0.00 | 0.00 | 0.00 | 82 | 1020.8 |
| 20260502021559 | 11 | 139 | 0.0 | 1.6 | 0.00 | 0.00 | 0.00 | 81 | 1020.7 |
| 20260502020108 | 11 | 0 | 0.0 | 1.6 | 0.00 | 0.00 | 0.00 | 80 | 1020.9 |
| 20260502014557 | 12 | 149 | 1.6 | 6.4 | 0.00 | 0.00 | 0.00 | 79 | 1020.9 |
| 20260502013057 | 12 | 236 | 1.6 | 4.8 | 0.00 | 0.00 | 0.00 | 79 | 1021.2 |
| 20260502011559 | 12 | 254 | 1.6 | 3.2 | 0.00 | 0.00 | 0.00 | 78 | 1021.3 |
| 20260502010059 | 12 | 0 | 0.0 | 1.6 | 0.00 | 0.00 | 0.00 | 78 | 1021.3 |
| 20260502004600 | 12 | 0 | 0.0 | 3.2 | 0.00 | 0.00 | 0.00 | 77 | 1021.5 |
| 20260502003056 | 12 | 0 | 0.0 | 8.0 | 0.00 | 0.00 | 0.00 | 76 | 1021.5 |
| 20260502001600 | 12 | 198 | 1.6 | 8.0 | 0.00 | 0.00 | 0.00 | 75 | 1021.7 |
| 20260501234600 | 12 | 50 | 0.0 | 4.8 | 0.00 | 0.00 | 0.00 | 74 | 1021.7 |
| 20260501233103 | 12 | 253 | 0.0 | 8.0 | 0.00 | 0.00 | 0.00 | 74 | 1021.7 |
| 20260501231608 | 12 | 120 | 1.6 | 17.7 | 0.00 | 0.00 | 0.00 | 73 | 1021.8 |
| 20260501230100 | 12 | 268 | 6.4 | 19.3 | 0.00 | 0.00 | 0.00 | 74 | 1021.6 |
| 20260501224559 | 12 | 225 | 3.2 | 12.9 | 0.00 | 0.00 | 0.00 | 74 | 1021.7 |
| 20260501223100 | 13 | 107 | 3.2 | 11.3 | 0.00 | 0.00 | 0.00 | 74 | 1021.6 |
| 20260501221559 | 13 | 273 | 3.2 | 11.3 | 0.00 | 0.00 | 0.00 | 74 | 1021.7 |
| 20260501220059 | 13 | 272 | 3.2 | 16.1 | 0.00 | 0.00 | 0.00 | 75 | 1021.7 |
| 20260501214607 | 13 | 196 | 3.2 | 14.5 | 0.00 | 0.00 | 0.00 | 75 | 1021.9 |
| 20260501213105 | 13 | 141 | 6.4 | 16.1 | 0.00 | 0.00 | 0.00 | 76 | 1021.9 |
| 20260501211558 | 13 | 54 | 4.8 | 16.1 | 0.00 | 0.00 | 0.00 | 75 | 1021.9 |
| 20260501210058 | 13 | 198 | 3.2 | 14.5 | 0.00 | 0.00 | 0.00 | 74 | 1022.1 |
| 20260501204600 | 14 | 169 | 4.8 | 20.9 | 0.00 | 0.00 | 0.00 | 72 | 1021.7 |
| 20260501203104 | 15 | 201 | 4.8 | 17.7 | 0.00 | 0.00 | 0.00 | 72 | 1021.6 |
| 20260501201557 | 15 | 207 | 4.8 | 16.1 | 0.00 | 0.00 | 0.00 | 71 | 1021.4 |
| 20260501200100 | 15 | 127 | 6.4 | 16.1 | 0.00 | 0.00 | 0.00 | 72 | 1021.3 |
| 20260501194603 | 15 | 110 | 4.8 | 19.3 | 0.00 | 0.00 | 0.00 | 71 | 1021.2 |
| 20260501193059 | 15 | 124 | 4.8 | 17.7 | 0.00 | 0.00 | 0.00 | 70 | 1021.0 |
| 20260501191606 | 16 | 117 | 4.8 | 14.5 | 0.00 | 0.00 | 0.00 | 67 | 1020.8 |
| 20260501190124 | 16 | 86 | 4.8 | 16.1 | 0.00 | 0.00 | 0.00 | 64 | 1020.6 |
| 20260501184559 | 17 | 103 | 4.8 | 11.3 | 0.00 | 0.00 | 0.00 | 62 | 1020.5 |
| 20260501183059 | 17 | 54 | 1.6 | 16.1 | 0.00 | 0.00 | 0.00 | 60 | 1020.3 |
| 20260501181608 | 18 | 77 | 11.3 | 20.9 | 0.00 | 0.00 | 0.00 | 57 | 1020.2 |
| 20260501180111 | 18 | 109 | 12.9 | 24.1 | 0.00 | 0.00 | 0.00 | 57 | 1020.1 |
| 20260501174613 | 20 | 123 | 8.0 | 17.7 | 0.00 | 0.00 | 0.00 | 54 | 1019.9 |
| 20260501173108 | 20 | 137 | 3.2 | 16.1 | 0.00 | 0.00 | 0.00 | 59 | 1019.9 |
| 20260501171601 | 20 | 58 | 6.4 | 14.5 | 0.00 | 0.00 | 0.00 | 56 | 1020.0 |
| 20260501164559 | 21 | 268 | 6.4 | 16.1 | 0.00 | 0.00 | 0.00 | 43 | 1019.8 |
| 20260501163059 | 21 | 248 | 11.3 | 25.7 | 0.00 | 0.00 | 0.00 | 43 | 1019.8 |
| 20260501161600 | 21 | 297 | 8.0 | 25.7 | 0.00 | 0.00 | 0.00 | 44 | 1019.6 |
| 20260501154609 | 21 | 236 | 9.7 | 19.3 | 0.00 | 0.00 | 0.00 | 45 | 1019.5 |
| 20260501153104 | 21 | 211 | 8.0 | 12.9 | 0.00 | 0.00 | 0.00 | 44 | 1019.4 |
| 20260501151608 | 21 | 247 | 3.2 | 17.7 | 0.00 | 0.00 | 0.00 | 47 | 1019.4 |
| 20260501150101 | 21 | 255 | 11.3 | 19.3 | 0.00 | 0.00 | 0.00 | 46 | 1019.5 |
| 20260501144618 | 21 | 316 | 9.7 | 27.4 | 0.00 | 0.00 | 0.00 | 48 | 1019.6 |
| 20260501143058 | 20 | 248 | 9.7 | 22.5 | 0.00 | 0.00 | 0.00 | 48 | 1019.7 |
| 20260501141621 | 21 | 232 | 6.4 | 25.7 | 0.00 | 0.00 | 0.00 | 49 | 1019.9 |